sat.trackr.live / text

‹ back to catalog

STARLINK-1548

NORAD 46054 · 2020-055AD

PAYLOAD ACTIVE UNKNOWN

§ Identity

Operator
Country
US
Launch date
2020-08-07
Launch site
AFETR
Launch vehicle
Mass (kg)
RCS (m²)

Purposes: comms

External: N2YO · Heavens-Above · Gunter

§ Orbital elements

Epoch: 2026-09-17T10:35:37.546656Z

Period
94.01 min
Inclination
53.1601°
Eccentricity
0.0001859
Mean motion
15.31680529 rev/d
Perigee alt
469.5 km
Apogee alt
472.1 km
Semi-major
6,848.9 km
B*
1.5148e-4
RAAN
301.7192°
Arg perigee
88.2890°
Mean anomaly
271.8325°
Rev number
33,845

§ Raw data

STARLINK-15481 46054U 20055AD  26260.44140679  .00004335  00000+0  15148-3 0  99982 46054  53.1601 301.7192 0001859  88.2890 271.8325 15.31680529338459

JSON: /api/v1/satellites/46054 · /tle

For live sub-satellite position, see the globe view (requires WebGL).

§ Visibility from observer

Set your observer location to see the next 7 days of passes ≥ 10°. The values pass through the URL so the page stays shareable.

No JS? Fill the form by hand. The geolocation button needs JavaScript.